OK4PZ-5 Weather Reports


Display with metric or nautical units.
time (UTC)temp
F
wind
direction
speed
MPH
gust
MPH
rain 1hr
in
rain 24hr
in
rain mn
in
humidity
%
barometer
mb
20260502181502 64 119 0.0 0.0 0.00 0.00 0.00 36 1021.0
20260502163001 73 35 2.0 2.0 0.00 0.00 0.00 26 1021.0
20260502161502 74 125 5.0 8.0 0.00 0.00 0.00 25 1021.0
20260502151502 77 13 2.0 2.0 0.00 0.00 0.00 24 1022.0
20260502123003 74 242 3.0 3.0 0.00 0.00 0.00 30 1024.0
20260502121502 73 120 2.0 7.0 0.00 0.00 0.00 32 1024.0
20260502114502 74 263 0.0 3.0 0.00 0.00 0.00 32 1024.0
20260502113002 73 243 2.0 4.0 0.00 0.00 0.00 33 1025.0
20260502110002 73 232 1.0 3.0 0.00 0.00 0.00 32 1025.0
20260502104502 72 118 7.0 8.0 0.00 0.00 0.00 33 1025.0
20260502103002 71 174 3.0 4.0 0.00 0.00 0.00 35 1025.0
20260502101502 69 258 1.0 2.0 0.00 0.00 0.00 36 1026.0
20260502091502 68 26 0.0 3.0 0.00 0.00 0.00 37 1026.0
20260502071502 59 17 0.0 0.0 0.00 0.00 0.00 53 1027.0
20260502070003 56 62 0.0 0.0 0.00 0.00 0.00 60 1027.0
20260502064502 55 118 1.0 1.0 0.00 0.00 0.00 60 1027.0
20260502063002 52 47 0.0 1.0 0.00 0.00 0.00 68 1027.0
20260502061502 51 43 0.0 0.0 0.00 0.00 0.00 69 1027.0
20260502060002 48 43 0.0 1.0 0.00 0.00 0.00 77 1027.0
20260502054502 46 43 0.0 1.0 0.00 0.00 0.00 81 1027.0
20260502053003 43 40 0.0 0.0 0.00 0.00 0.00 86 1027.0
20260502051502 40 40 0.0 0.0 0.00 0.00 0.00 92 1027.0
20260502050002 38 40 0.0 1.0 0.00 0.00 0.00 95 1027.0
20260502044502 37 40 0.0 0.0 0.00 0.00 0.00 95 1027.0
20260502043002 35 40 0.0 0.0 0.00 0.00 0.00 96 1027.0
20260502040002 35 40 0.0 0.0 0.00 0.00 0.00 96 1026.0
20260502034502 35 40 0.0 0.0 0.00 0.00 0.00 96 1027.0
20260502033003 35 40 0.0 0.0 0.00 0.00 0.00 96 1027.0
20260502031502 35 40 0.0 0.0 0.00 0.00 0.00 95 1027.0
20260502030002 35 40 0.0 0.0 0.00 0.00 0.00 95 1027.0
20260502024501 35 40 0.0 0.0 0.00 0.00 0.00 95 1027.0
20260502023002 36 40 0.0 0.0 0.00 0.00 0.00 94 1027.0
20260502021502 36 40 0.0 0.0 0.00 0.00 0.00 94 1027.0
20260502020002 37 40 0.0 0.0 0.00 0.00 0.00 94 1027.0
20260502014502 37 40 0.0 0.0 0.00 0.00 0.00 94 1027.0
20260502013002 37 41 0.0 0.0 0.00 0.00 0.00 93 1027.0
20260502011502 38 40 0.0 0.0 0.00 0.00 0.00 92 1027.0
20260502010002 38 40 0.0 0.0 0.00 0.00 0.00 91 1027.0
20260502004502 38 40 0.0 0.0 0.00 0.00 0.00 92 1027.0
20260502003003 39 40 0.0 0.0 0.00 0.00 0.00 91 1028.0
20260502001502 39 40 0.0 0.0 0.00 0.00 0.00 91 1028.0
20260502000002 40 40 0.0 0.0 0.00 0.00 0.00 90 1028.0
20260501234502 40 40 0.0 0.0 0.00 0.00 0.00 90 1028.0
20260501233002 41 40 0.0 0.0 0.00 0.00 0.00 88 1028.0
20260501231501 41 40 0.0 0.0 0.00 0.00 0.00 87 1028.0
20260501230002 41 40 0.0 0.0 0.00 0.00 0.00 87 1028.0
20260501224502 42 40 0.0 0.0 0.00 0.00 0.00 86 1028.0
20260501223003 42 40 0.0 0.0 0.00 0.00 0.00 84 1028.0
20260501221502 43 40 0.0 0.0 0.00 0.00 0.00 85 1028.0
20260501220002 44 40 0.0 0.0 0.00 0.00 0.00 84 1028.0
20260501214502 44 40 0.0 0.0 0.00 0.00 0.00 83 1028.0
20260501213003 44 40 0.0 0.0 0.00 0.00 0.00 83 1028.0
20260501211502 45 40 0.0 0.0 0.00 0.00 0.00 81 1028.0
20260501210002 46 40 0.0 0.0 0.00 0.00 0.00 81 1028.0
20260501204502 47 40 0.0 0.0 0.00 0.00 0.00 79 1028.0
20260501203002 48 40 0.0 0.0 0.00 0.00 0.00 79 1028.0
20260501201502 48 40 0.0 0.0 0.00 0.00 0.00 76 1028.0
20260501200002 49 40 0.0 0.0 0.00 0.00 0.00 73 1028.0
20260501194502 50 40 0.0 0.0 0.00 0.00 0.00 71 1028.0
20260501193002 51 40 0.0 0.0 0.00 0.00 0.00 70 1028.0
20260501191502 52 40 0.0 0.0 0.00 0.00 0.00 65 1028.0
20260501190002 53 40 0.0 0.0 0.00 0.00 0.00 64 1028.0
20260501184503 56 40 0.0 0.0 0.00 0.00 0.00 58 1028.0
20260501183002 58 40 0.0 0.0 0.00 0.00 0.00 49 1027.0